Torna al catalogo

STARLINK-5212

AttivoComunicazioniVLEO
NORAD 54075·PAYLOAD·🇺🇸 United States

Lanciato Oct 20, 2022 da Cape Canaveral Space Force Station

Loading…

Prossimi Passaggi (prossime 24 ore)

TLE

AggiornatoSource: CelesTrak SupGP

Epoca: Sep 14, 2026, 21:01 UTC

1 54075C 22136AA  26257.87618056 -.00020404  00000+0 -65605-3 0  2571
2 54075  53.1577 195.1826 0001404  97.6198 309.5442 15.31715945    11

Traccia STARLINK-5212 in tempo reale con AllMySat

Download on the App Store